When you browse on this site, cookies collect data to enhance your experience and personalize the content and advertising you see.
Visit our Privacy Policy to learn more. By continuing to use the site, you agree to this use of cookies and data.
  • In United Kingdom
  • List of Countries
  • For 7 days
  • Water Temperature
  • Weather Map
  • Weather Widgets
  • user-avatar
    Login

    Hourly Weather Apollonivka

    Today, 29 January, Wednesday

    Time Temperature Precipitation Wind Pressure Humidity
    00:00 +2°C° 0.7 mm 3 mps 745 mmHg 97%
    01:00 +2°C° 0.7 mm 3 mps 744 mmHg 97%
    02:00 +1°C° 0 mm 4 mps 744 mmHg 96%
    03:00 +2°C° 0.5 mm 3 mps 743 mmHg 96%
    04:00 +2°C° 0.5 mm 3 mps 743 mmHg 97%
    05:00 +2°C° 0.5 mm 3 mps 743 mmHg 97%
    06:00 +2°C° 0.2 mm 3 mps 742 mmHg 97%
    07:00 +2°C° 0.2 mm 3 mps 742 mmHg 97%
    08:00 +2°C° 0 mm 3 mps 742 mmHg 97%
    09:00 +2°C° 0.1 mm 3 mps 742 mmHg 97%
    10:00 +3°C° 0.1 mm 3 mps 742 mmHg 96%
    11:00 +3°C° 0.1 mm 3 mps 742 mmHg 95%
    12:00 +4°C° 0 mm 3 mps 742 mmHg 93%
    13:00 +4°C° 0 mm 3 mps 741 mmHg 90%
    14:00 +4°C° 0 mm 3 mps 741 mmHg 86%
    15:00 +4°C° 0 mm 4 mps 741 mmHg 87%
    16:00 +4°C° 0 mm 4 mps 741 mmHg 87%
    17:00 +3°C° 0 mm 5 mps 740 mmHg 87%
    18:00 +3°C° 0 mm 5 mps 740 mmHg 87%
    19:00 +3°C° 0 mm 6 mps 739 mmHg 87%
    20:00 +3°C° 0 mm 6 mps 739 mmHg 87%
    21:00 +3°C° 0.3 mm 7 mps 738 mmHg 87%
    22:00 +2°C° 0.3 mm 8 mps 738 mmHg 87%
    23:00 +4°C° 0.3 mm 8 mps 737 mmHg 87%

    Tomorrow, 30 January, Thursday

    Time Temperature Precipitation Wind Pressure Humidity
    00:00 +2°C° 0.4 mm 9 mps 737 mmHg 87%
    01:00 0°C° 0.4 mm 9 mps 738 mmHg 87%
    02:00 -2°C° 0.4 mm 10 mps 738 mmHg 87%
    03:00 -1°C° 0 mm 9 mps 739 mmHg 82%
    04:00 -1°C° 0 mm 9 mps 739 mmHg 77%
    05:00 -1°C° 0 mm 8 mps 740 mmHg 71%
    06:00 -1°C° 0 mm 8 mps 740 mmHg 74%
    07:00 -2°C° 0 mm 8 mps 741 mmHg 77%
    08:00 -2°C° 0 mm 7 mps 741 mmHg 79%
    09:00 -2°C° 0 mm 8 mps 741 mmHg 78%
    10:00 -1°C° 0 mm 9 mps 741 mmHg 76%
    11:00 0°C° 0 mm 9 mps 741 mmHg 75%
    12:00 0°C° 0 mm 9 mps 741 mmHg 72%
    13:00 0°C° 0 mm 9 mps 741 mmHg 69%
    14:00 +1°C° 0 mm 10 mps 741 mmHg 66%
    15:00 +1°C° 0 mm 9 mps 741 mmHg 67%
    16:00 0°C° 0 mm 8 mps 741 mmHg 69%
    17:00 0°C° 0 mm 7 mps 742 mmHg 71%
    18:00 0°C° 0 mm 7 mps 742 mmHg 71%
    19:00 0°C° 0 mm 7 mps 742 mmHg 72%
    20:00 -1°C° 0 mm 7 mps 743 mmHg 73%
    21:00 -1°C° 0 mm 7 mps 743 mmHg 75%
    22:00 -1°C° 0 mm 7 mps 743 mmHg 78%
    23:00 -1°C° 0 mm 7 mps 743 mmHg 80%

    Day after tomorrow, 31 January, Friday

    Time Temperature Precipitation Wind Pressure Humidity
    00:00 -2°C° 0 mm 6 mps 743 mmHg 81%
    01:00 -2°C° 0 mm 6 mps 744 mmHg 82%
    02:00 -2°C° 0 mm 6 mps 744 mmHg 84%
    03:00 -1°C° 0 mm 5 mps 744 mmHg 86%
    04:00 -2°C° 0 mm 5 mps 744 mmHg 88%
    05:00 -2°C° 0 mm 5 mps 744 mmHg 90%
    06:00 -2°C° 0 mm 5 mps 744 mmHg 89%
    07:00 -2°C° 0 mm 5 mps 745 mmHg 88%
    08:00 -2°C° 0 mm 5 mps 745 mmHg 86%
    09:00 -1°C° 0 mm 5 mps 745 mmHg 80%
    10:00 0°C° 0 mm 5 mps 745 mmHg 75%
    11:00 +1°C° 0 mm 5 mps 745 mmHg 69%
    12:00 +1°C° 0 mm 5 mps 744 mmHg 68%
    13:00 +1°C° 0 mm 5 mps 744 mmHg 67%
    14:00 +1°C° 0 mm 5 mps 744 mmHg 65%
    15:00 +1°C° 0 mm 5 mps 744 mmHg 69%
    16:00 0°C° 0 mm 4 mps 744 mmHg 72%
    17:00 +1°C° 0 mm 3 mps 744 mmHg 75%
    18:00 0°C° 0 mm 4 mps 743 mmHg 75%
    19:00 0°C° 0 mm 4 mps 743 mmHg 75%
    20:00 0°C° 0 mm 4 mps 743 mmHg 75%
    21:00 -1°C° 0 mm 4 mps 743 mmHg 76%
    22:00 -1°C° 0 mm 4 mps 743 mmHg 76%
    23:00 -1°C° 0 mm 5 mps 743 mmHg 77%

    1 February, Saturday

    Time Temperature Precipitation Wind Pressure Humidity
    00:00 -1°C° 0 mm 4 mps 743 mmHg 78%
    01:00 -1°C° 0 mm 4 mps 743 mmHg 80%
    02:00 -2°C° 0 mm 4 mps 744 mmHg 82%
    03:00 -2°C° 0 mm 4 mps 743 mmHg 85%
    04:00 -1°C° 0 mm 3 mps 743 mmHg 88%
    05:00 -2°C° 0 mm 3 mps 743 mmHg 92%
    06:00 -1°C° 0.1 mm 3 mps 743 mmHg 93%
    07:00 -1°C° 0.1 mm 3 mps 744 mmHg 94%
    08:00 0°C° 0.1 mm 3 mps 744 mmHg 96%
    09:00 0°C° 0.1 mm 3 mps 744 mmHg 95%
    10:00 +1°C° 0.1 mm 3 mps 744 mmHg 95%
    11:00 +1°C° 0.1 mm 3 mps 744 mmHg 94%
    12:00 +2°C° 0.1 mm 2 mps 744 mmHg 95%
    13:00 +2°C° 0.1 mm 2 mps 744 mmHg 96%
    14:00 +3°C° 0.1 mm 2 mps 744 mmHg 96%
    15:00 +2°C° 0 mm 2 mps 744 mmHg 96%
    16:00 +3°C° 0 mm 1 mps 744 mmHg 96%
    17:00 +3°C° 0 mm 1 mps 744 mmHg 95%
    18:00 +3°C° 0 mm 1 mps 745 mmHg 94%
    19:00 +3°C° 0 mm 1 mps 745 mmHg 93%
    20:00 +3°C° 0 mm 1 mps 745 mmHg 91%
    21:00 +2°C° 0 mm 2 mps 745 mmHg 92%
    22:00 +1°C° 0 mm 2 mps 745 mmHg 92%
    23:00 +1°C° 0 mm 2 mps 745 mmHg 92%

    2 February, Sunday

    Time Temperature Precipitation Wind Pressure Humidity
    00:00 +1°C° 0 mm 2 mps 745 mmHg 93%
    01:00 +1°C° 0 mm 2 mps 745 mmHg 93%
    02:00 0°C° 0 mm 3 mps 745 mmHg 93%
    03:00 0°C° 0 mm 3 mps 745 mmHg 93%
    04:00 0°C° 0 mm 4 mps 744 mmHg 92%
    05:00 0°C° 0 mm 4 mps 744 mmHg 92%
    06:00 +1°C° 0 mm 4 mps 744 mmHg 93%
    07:00 +1°C° 0 mm 5 mps 744 mmHg 93%
    08:00 +1°C° 0 mm 5 mps 744 mmHg 94%
    09:00 +2°C° 0 mm 6 mps 743 mmHg 89%
    10:00 +4°C° 0 mm 6 mps 743 mmHg 83%
    11:00 +5°C° 0 mm 7 mps 742 mmHg 78%
    12:00 +5°C° 0 mm 7 mps 742 mmHg 77%
    13:00 +6°C° 0 mm 7 mps 741 mmHg 77%
    14:00 +7°C° 0 mm 8 mps 741 mmHg 76%
    15:00 +8°C° 0 mm 7 mps 740 mmHg 79%
    16:00 +6°C° 0 mm 7 mps 740 mmHg 82%
    17:00 +7°C° 0 mm 6 mps 740 mmHg 84%
    18:00 +7°C° 0.2 mm 6 mps 739 mmHg 85%
    19:00 +7°C° 0.2 mm 6 mps 739 mmHg 86%
    20:00 +7°C° 0.2 mm 6 mps 739 mmHg 86%
    21:00 +7°C° 0.5 mm 6 mps 739 mmHg 88%
    22:00 +5°C° 0.5 mm 6 mps 738 mmHg 89%
    23:00 +5°C° 0.5 mm 6 mps 738 mmHg 91%

    3 February, Monday

    Time Temperature Precipitation Wind Pressure Humidity
    00:00 +5°C° 0.2 mm 7 mps 738 mmHg 89%
    01:00 +4°C° 0.2 mm 7 mps 738 mmHg 87%
    02:00 +4°C° 0.2 mm 8 mps 738 mmHg 84%
    03:00 +3°C° 0.1 mm 7 mps 738 mmHg 85%
    04:00 +3°C° 0.1 mm 7 mps 739 mmHg 86%
    05:00 +2°C° 0.1 mm 6 mps 739 mmHg 87%
    06:00 +2°C° 0 mm 6 mps 739 mmHg 84%
    07:00 +2°C° 0 mm 6 mps 739 mmHg 82%
    08:00 +2°C° 0 mm 6 mps 739 mmHg 79%
    09:00 +2°C° 0 mm 6 mps 740 mmHg 78%
    10:00 +2°C° 0 mm 6 mps 740 mmHg 77%
    11:00 +3°C° 0 mm 7 mps 740 mmHg 76%
    12:00 +3°C° 0.1 mm 7 mps 740 mmHg 76%
    13:00 +3°C° 0.1 mm 7 mps 740 mmHg 75%
    14:00 +3°C° 0.1 mm 7 mps 739 mmHg 75%
    15:00 +3°C° 0 mm 6 mps 740 mmHg 74%
    16:00 +2°C° 0 mm 5 mps 740 mmHg 72%
    17:00 +2°C° 0 mm 5 mps 740 mmHg 70%
    18:00 +2°C° 0 mm 5 mps 740 mmHg 75%
    19:00 +1°C° 0 mm 4 mps 740 mmHg 80%
    20:00 +1°C° 0 mm 4 mps 740 mmHg 85%
    21:00 +1°C° 0 mm 4 mps 741 mmHg 86%
    22:00 0°C° 0 mm 4 mps 741 mmHg 88%
    23:00 0°C° 0 mm 4 mps 741 mmHg 89%
    Show more